Погода в Уллубийауле

Россия / Республика Дагестан     42°35′49″N   47°43′03″E
темп.,
°C
ветер,
м/с
пор.,
м/с
влажн.,
%
обл.,
%
осадки,
мм/ч
давл.,
гПа
погр.,
м
15 мая, сб
сб1500:00+18ююз224820 0.0 101316
03:00+18ююз33430 0.0 101324
06:00+20ююз33500 0.0 101330
09:00+25юв58380 0.0 1014653
12:00+25вюв69340 0.0 1014752
15:00+24юв48370 0.0 1013549
18:00+21ююв45540 0.0 101367
21:00+18юз224731 0.0 101413
16 мая, вс
вс1600:00+17юз125745 0.0 101312
03:00+17ююз32551 0.0 101214
06:00+20ю34590 0.0 101259
09:00+24юв58370 0.0 1011652
12:00+26юв710320 0.0 1010846
15:00+24юв813360 0.0 1009676
18:00+20юв47520 0.0 1009132
21:00+18ю33510 0.0 100927
17 мая, пн
пн1700:00+18ю33500 0.0 100817
03:00+17ююз22440 0.0 100719
06:00+19ю22448 0.0 100831
09:00+23вюв334144 0.0 1007314
12:00+24вюв454011 0.0 1007488
15:00+23в33503 0.0 1006317
18:00+20юв22674 0.0 100564
21:00+18ююз1166100 0.0 100612
18 мая, вт
вт1800:00+19зсз43532 0.0 100733
03:00+17сз226035 0.0 100720
06:00+19сз346228 0.0 1008134
09:00+20св2368100 0.0 1009522
12:00+23с7762100 0.1 10101026
15:00+22ссз896715 0.6 1011899
18:00+20сз2373100 1.4 1011159
21:00+18зюз227993 2.3 101214
19 мая, ср
ср1900:00+16зсз118333 1.1 101311
03:00+16з337726 1.1 101319
06:00+19зюз22691 0.0 101471
09:00+22ссв33572 0.0 1014872
12:00+24св335518 0.1 10141037
15:00+23всв325717 0.1 1015725
18:00+21вюв22674 0.0 1015158
21:00+18зюз22743 0.0 101513